Starlink 6368

operational
NORAD ID: 57234 Int'l Des: 2023-094 Owner: SPXS Country: US Constellation: starlink
LEOCIRCULAR

关于 Starlink 6368

正在加载描述...

实时位置

正在加载3D地球...

即将过境

高度历史

Altitude vs Time

uPlot chart will show altitude changes over time

两行轨道根数

1 57234U 23094S 25350.65205025 -.00000516 00000-0 -23130-4 0 9996
2 57234 43.0021 121.1229 0001162 269.6087 90.4622 15.02531795134637
Epoch: Dec 16, 2025 • Age: 19 hours

当前状态

高度 571.6 km
速度 7.58 km/s
星下点 -43.11°S, 147.88°E
发射日期 Jul 7, 2023
运行时间 2.4 years
类型 internet

技术详情

分类 Payload
质量 305.00 kg
干质量 290.00 kg
总质量 305.00 kg
长度 0.20 m
直径 2.80 m
跨度 9.00 m
形状 Box + pan
制造商 SPXS
平台类型 Starlink
阶段状态 In Orbit
所有者/国家 SPXS/US

大型星座

Loading constellations...